User: anonymous   Login
Location: Trois-Rivi�res
(46.3500°N, 72.5500°W)
Time: 19:15:59
(UTC-05:00)
Language:

Cosmos 1544 - Orbit

View from above orbital plane
View from above orbital plane
View from above satellite
View from above satellite

Ground track
Ground track

The orbit data is extracted from the following two-line orbital elements,

1 14819U 84027A   16336.84694717  .00001680  00000-0  65334-4 0  9999
2 14819  82.4860 225.9957 0015378  20.6304 339.5551 15.25213497785720
Epoch (UTC): 01 December 2016 20:19:36
Eccentricity: 0.0015378
inclination: 82.4860°
perigee height: 479 km
apogee height: 501 km
right ascension of ascending node: 225.9957°
argument of perigee: 20.6304°
revolutions per day: 15.25213497
mean anomaly at epoch: 339.5551°
orbit number at epoch: 78572

The dashed part of the orbit path shows where the satellite is in the earth's shadow,  

DLR